Date String (YYYY-MM-DD hh:mm:ss) UTC,Instrument flags,absolute air pressure of the measurement (hPa),sample flow rate (lpm),inlet stack bypass flow (lpm),air temperature of the measurement (°C),ambient temperature measured by the external sensor (°C),aerosol sample conditioner tube jacket temperature (°C),OPC LED temperature (°C),internal box temperature (°C),relative humidity of the measurement (%),span deviation,mass concentration of particles derived from Lorenz-Mie calculation of OPC scattering (μg/m³),mass concentration of particles derived from Lorenz-Mie calculation of OPC scattering (μg/m³),mass concentration of particles derived from Lorenz-Mie calculation of OPC scattering (μg/m³)
DateTimeUTC,F1_M11,P_M11,Q1_M11,Q2_M11,T1_M11,T2_M11,T3_M11,T4_M11,T5_M11,U1_M11,ZSPAN_M11,X2_M11,X0_M11,X1_M11
2024-01-12 01:00:00,SystemResetWarning,0819.0,5.00,000.00,018.8,017.9,000.0,027.3,020.0,6.7,0000.0,0004.26,0010.08,0003.48
2024-01-12 01:01:00,SystemResetWarning,0819.0,5.00,000.00,018.8,017.9,000.0,027.3,020.1,6.7,0000.0,0004.25,0009.98,0003.48
2024-01-12 01:02:00,SystemResetWarning,0819.0,5.01,000.00,018.9,018.0,000.0,027.3,020.4,6.7,0001.7,0004.27,0010.71,0003.49
2024-01-12 01:03:00,SystemResetWarning,0819.1,5.00,000.00,019.0,018.6,000.0,027.3,020.8,6.7,0000.6,0004.27,0011.22,0003.48
2024-01-12 01:04:00,SystemResetWarning,0819.1,5.00,000.00,019.1,018.8,000.0,027.3,020.7,6.6,0001.9,0004.27,0011.22,0003.48
2024-01-12 01:05:00,SystemResetWarning,0819.1,5.00,000.00,019.1,018.8,000.0,027.3,020.4,6.6,0000.6,0004.26,0011.84,0003.48
2024-01-12 01:06:00,SystemResetWarning,0819.1,4.99,000.00,019.1,018.7,000.0,027.3,020.3,6.6,0000.2,0004.26,0011.88,0003.48
2024-01-12 01:07:00,SystemResetWarning,0819.2,4.99,000.00,019.1,018.6,000.0,027.3,020.2,6.6,0000.0,0004.30,0012.05,0003.48
2024-01-12 01:08:00,SystemResetWarning,0819.1,5.01,000.00,019.1,018.6,000.0,027.3,020.2,6.7,0000.0,0004.28,0012.07,0003.47
2024-01-12 01:09:00,SystemResetWarning,0819.1,5.01,000.00,019.0,018.5,000.0,027.3,020.1,6.7,0000.0,0004.27,0011.99,0003.46
2024-01-12 01:10:00,SystemResetWarning,0819.2,5.00,000.00,019.0,018.4,000.0,027.3,020.1,6.7,0000.0,0004.22,0011.81,0003.46
2024-01-12 01:11:00,SystemResetWarning,0819.2,4.99,000.00,019.0,018.4,000.0,027.3,020.1,6.7,0000.0,0004.24,0012.32,0003.46
2024-01-12 01:12:00,SystemResetWarning,0819.3,5.00,000.00,019.0,018.3,000.0,027.3,020.0,6.7,0000.0,0004.25,0012.51,0003.46
2024-01-12 01:13:00,SystemResetWarning,0819.3,4.99,000.00,018.9,018.3,000.0,027.3,020.0,6.7,0000.0,0004.28,0012.03,0003.46
2024-01-12 01:14:00,SystemResetWarning,0819.3,5.00,000.00,018.9,018.2,000.0,027.3,020.0,6.7,0000.0,0004.29,0011.60,0003.47
2024-01-12 01:15:00,SystemResetWarning,0819.3,5.00,000.00,018.9,018.2,000.0,027.3,020.0,6.7,0000.0,0004.31,0012.71,0003.47
2024-01-12 01:16:00,SystemResetWarning,0819.3,5.00,000.00,018.9,018.2,000.0,027.3,020.0,6.7,0000.0,0004.33,0011.69,0003.46
2024-01-12 01:17:00,SystemResetWarning,0819.3,5.00,000.00,018.9,018.1,000.0,027.3,020.0,6.7,0000.0,0004.33,0011.61,0003.45
2024-01-12 01:18:00,SystemResetWarning,0819.3,5.01,000.00,018.9,018.1,000.0,027.3,020.0,6.7,0000.0,0004.30,0012.89,0003.45
2024-01-12 01:19:00,SystemResetWarning,0819.3,5.00,000.00,018.9,018.1,000.0,027.3,020.0,6.7,0000.0,0004.25,0013.07,0003.44
2024-01-12 01:20:00,SystemResetWarning,0819.3,5.00,000.00,018.9,018.1,000.0,027.3,020.0,6.7,0000.0,0004.25,0013.20,0003.44
2024-01-12 01:21:00,SystemResetWarning,0819.3,4.99,000.00,018.9,018.1,000.0,027.3,020.0,6.6,0000.0,0004.29,0013.27,0003.43
2024-01-12 01:22:00,SystemResetWarning,0819.3,5.00,000.00,018.8,018.1,000.0,027.3,020.0,6.6,0000.0,0004.29,0012.86,0003.41
2024-01-12 01:23:00,SystemResetWarning,0819.3,5.01,000.00,018.8,018.0,000.0,027.3,020.0,6.6,0000.0,0004.29,0013.49,0003.42
2024-01-12 01:24:00,SystemResetWarning,0819.3,5.01,000.00,018.8,018.0,000.0,027.3,020.0,6.6,0000.0,0004.26,0014.01,0003.40
2024-01-12 01:25:00,SystemResetWarning,0819.3,5.01,000.00,018.8,018.0,000.0,027.3,020.0,6.6,0000.0,0004.27,0014.48,0003.39
2024-01-12 01:26:00,SystemResetWarning,0819.3,5.00,000.00,018.8,018.0,000.0,027.3,020.0,6.6,0000.0,0004.24,0012.78,0003.39
2024-01-12 01:27:00,SystemResetWarning,0819.3,4.99,000.00,018.8,018.0,000.0,027.3,020.2,6.5,0000.0,0004.19,0013.16,0003.38
2024-01-12 01:28:00,SystemResetWarning,0819.4,5.00,000.00,018.9,018.4,000.0,027.3,020.6,6.5,0000.0,0004.15,0014.81,0003.38
2024-01-12 01:29:00,SystemResetWarning,0819.4,5.01,000.00,019.1,018.9,000.0,027.3,020.8,6.4,0000.0,0004.13,0014.00,0003.37
2024-01-12 01:30:00,SystemResetWarning,0819.3,5.00,000.00,019.1,018.9,000.0,027.3,020.6,6.4,0000.0,0004.17,0013.46,0003.37
2024-01-12 01:31:00,SystemResetWarning,0819.3,4.99,000.00,019.1,018.8,000.0,027.3,020.3,6.4,0000.0,0004.18,0013.31,0003.38
2024-01-12 01:32:00,SystemResetWarning,0819.3,4.99,000.00,019.1,018.7,000.0,027.3,020.2,6.4,0000.0,0004.15,0013.32,0003.39
2024-01-12 01:33:00,SystemResetWarning,0819.3,4.99,000.00,019.1,018.5,000.0,027.3,020.1,6.4,0000.0,0004.13,0013.80,0003.39
2024-01-12 01:34:00,SystemResetWarning,0819.4,5.01,000.00,019.0,018.5,000.0,027.3,020.1,6.4,0000.0,0004.13,0013.31,0003.38
2024-01-12 01:35:00,SystemResetWarning,0819.5,5.00,000.00,019.0,018.4,000.0,027.3,020.0,6.4,0000.0,0004.13,0012.66,0003.38
2024-01-12 01:36:00,SystemResetWarning,0819.3,5.01,000.00,018.9,018.3,000.0,027.3,020.0,6.5,0000.0,0004.13,0012.61,0003.38
2024-01-12 01:37:00,SystemResetWarning,0819.5,5.00,000.00,018.9,018.2,000.0,027.3,020.0,6.5,0000.0,0004.12,0014.32,0003.38
2024-01-12 01:38:00,SystemResetWarning,0819.4,5.00,000.00,018.9,018.1,000.0,027.3,020.0,6.5,0000.0,0004.20,0014.58,0003.39
2024-01-12 01:39:00,SystemResetWarning,0819.4,5.00,000.00,018.9,018.1,000.0,027.3,020.0,6.5,0000.0,0004.24,0012.82,0003.43
2024-01-12 01:40:00,SystemResetWarning,0819.4,5.00,000.00,018.9,018.1,000.0,027.3,020.0,6.5,0000.0,0004.28,0012.32,0003.46
2024-01-12 01:41:00,SystemResetWarning,0819.4,5.00,000.00,018.9,018.0,000.0,027.3,020.0,6.6,0000.0,0004.31,0013.09,0003.48
2024-01-12 01:42:00,SystemResetWarning,0819.4,4.99,000.00,018.9,018.0,000.0,027.3,020.0,6.6,0000.0,0004.35,0014.29,0003.48
2024-01-12 01:43:00,SystemResetWarning,0819.4,5.00,000.00,018.8,018.0,000.0,027.3,020.0,6.6,0000.0,0004.40,0014.84,0003.49
2024-01-12 01:44:00,SystemResetWarning,0819.4,5.00,000.00,018.8,017.9,000.0,027.3,020.0,6.6,0000.0,0004.45,0014.53,0003.51
2024-01-12 01:45:00,SystemResetWarning,0819.4,5.00,000.00,018.8,017.9,000.0,027.3,020.0,6.6,0000.0,0004.50,0014.45,0003.55
2024-01-12 01:46:00,SystemResetWarning,0819.4,5.00,000.00,018.8,017.8,000.0,027.3,020.0,6.6,0001.8,0004.53,0014.86,0003.58
2024-01-12 01:47:00,SystemResetWarning,0819.5,5.01,000.00,018.8,017.8,000.0,027.3,020.0,6.6,0001.2,0004.56,0015.48,0003.61
2024-01-12 01:48:00,SystemResetWarning,0819.5,5.00,000.00,018.8,017.8,000.0,027.3,020.0,6.7,0000.8,0004.60,0013.83,0003.65
2024-01-12 01:49:00,SystemResetWarning,0819.4,5.01,000.00,018.8,017.9,000.0,027.3,020.2,6.7,0000.0,0004.59,0013.12,0003.67
2024-01-12 01:50:00,SystemResetWarning,0819.5,5.00,000.00,018.9,018.4,000.0,027.3,020.6,6.6,0000.0,0004.63,0012.95,0003.69
2024-01-12 01:51:00,SystemResetWarning,0819.5,5.00,000.00,019.1,019.0,000.0,027.3,020.8,6.6,0000.0,0004.64,0013.02,0003.69
2024-01-12 01:52:00,SystemResetWarning,0819.5,4.99,000.00,019.1,019.0,000.0,027.3,020.5,6.6,0000.0,0004.62,0013.32,0003.69
2024-01-12 01:53:00,SystemResetWarning,0819.5,4.99,000.00,019.1,018.8,000.0,027.3,020.3,6.6,0000.0,0004.62,0011.71,0003.71
2024-01-12 01:54:00,SystemResetWarning,0819.5,5.01,000.00,019.1,018.6,000.0,027.3,020.1,6.6,0000.0,0004.58,0011.37,0003.71
2024-01-12 01:55:00,SystemResetWarning,0819.5,5.00,000.00,019.0,018.5,000.0,027.3,020.0,6.6,0000.0,0004.57,0011.29,0003.71
2024-01-12 01:56:00,SystemResetWarning,0819.5,5.01,000.00,019.0,018.4,000.0,027.3,020.0,6.6,0000.0,0004.55,0011.95,0003.70
2024-01-12 01:57:00,SystemResetWarning,0819.6,5.00,000.00,018.9,018.3,000.0,027.3,020.0,6.6,0000.0,0004.50,0011.50,0003.68
2024-01-12 01:58:00,SystemResetWarning,0819.5,5.00,000.00,018.9,018.2,000.0,027.3,020.0,6.6,0000.0,0004.49,0011.26,0003.65
2024-01-12 01:59:00,SystemResetWarning,0819.7,5.00,000.00,018.9,018.1,000.0,027.3,020.0,6.7,0000.0,0004.45,0011.44,0003.62
